Weather History for KMWT - June, 2013

Change the Weather History Date:

Friday, June 21, 2013

  Actual Average (KHOT) Record (KHOT)
Temperature  
Mean Temperature 82 °F -  
Max Temperature 91 °F 90 °F 108 °F (1953)
Min Temperature 73 °F 67 °F 54 °F (1976)
Cooling Degree Days 16    
Growing Degree Days 32 (Base 50)    
Moisture  
Dew Point 72 °F    
Average Humidity 74    
Maximum Humidity 93    
Minimum Humidity 55    
Precipitation  
Precipitation 0.00 in - - ()
Sea Level Pressure  
Sea Level Pressure 30.03 in    
Wind  
Wind Speed 1 mph (SW)    
Max Wind Speed 7 mph    
Max Gust Speed -    
Visibility 9 miles    
Events      
Averages and records for this station are not official NWS values.
T = Trace of Precipitation, MM = Missing Value Source: NWS Daily Summary

Daily Weather History Graph

Daily Weather History Graph

Search for Another Location

Airport or City:

Trip Planner

Search our weather history database for the weather conditions in past years. The results will help you decide how hot, cold, wet, or windy it might be!

Date:

Astronomy

Jun. 21, 2013 Rise Set
Actual Time 6:02 AM CDT 8:30 PM CDT
Civil Twilight 5:32 AM CDT 8:59 PM CDT
Nautical Twilight 4:56 AM CDT 9:36 PM CDT
Astronomical Twilight 4:16 AM CDT 10:16 PM CDT
Moon 6:44 PM CDT (6/21) 4:14 AM CDT (6/21)
Length of Visible Light 15h 27m
Length of Day
14h 28m
Waxing Gibbous, 95% of the Moon is Illuminated
Jun 21
Waxing Gibbous
Jun 23
Full
Jun 29
Last Quarter
Jul 8
New
Jul 15
First Quarter

Hourly Weather History & Observations

Time (CDT) Temp. Heat Index Dew Point Humidity Pressure Visibility Wind Dir Wind Speed Gust Speed Precip Events Conditions
12:53 AM 78.1 °F - 71.1 °F 79% 30.03 in 10.0 mi Calm Calm - N/A   Clear
1:53 AM 75.9 °F - 72.0 °F 87% 30.03 in 10.0 mi Calm Calm - N/A   Clear
2:53 AM 75.0 °F - 72.0 °F 90% 30.04 in 8.0 mi Calm Calm - N/A   Clear
3:53 AM 73.0 °F - 71.1 °F 93% 30.02 in 5.0 mi Calm Calm - N/A   Clear
4:53 AM 73.0 °F - 71.1 °F 93% 30.03 in 5.0 mi Calm Calm - N/A   Clear
5:53 AM 73.0 °F - 71.1 °F 93% 30.03 in 4.0 mi Calm Calm - N/A   Clear
6:53 AM 73.0 °F - 71.1 °F 93% 30.04 in 4.0 mi Calm Calm - N/A   Clear
7:53 AM 78.1 °F - 73.9 °F 87% 30.05 in 7.0 mi Calm Calm - N/A   Clear
8:53 AM 81.0 °F 85.8 °F 73.0 °F 77% 30.06 in 10.0 mi Calm Calm - N/A   Clear
9:53 AM 82.9 °F 88.8 °F 73.0 °F 72% 30.07 in 10.0 mi Calm Calm - N/A   Clear
10:53 AM 84.9 °F 90.7 °F 72.0 °F 65% 30.08 in 10.0 mi SW 4.6 mph - N/A   Clear
11:53 AM 87.1 °F 93.6 °F 72.0 °F 61% 30.07 in 10.0 mi Variable 3.5 mph - N/A   Partly Cloudy
12:53 PM 88.0 °F 94.7 °F 72.0 °F 59% 30.07 in 10.0 mi Variable 6.9 mph - N/A   Clear
1:53 PM 89.1 °F 96.0 °F 72.0 °F 57% 30.05 in 10.0 mi Variable 3.5 mph - N/A   Partly Cloudy
2:53 PM 90.0 °F 96.9 °F 72.0 °F 55% 30.04 in 10.0 mi Calm Calm - N/A   Scattered Clouds
3:53 PM 90.0 °F 97.9 °F 73.0 °F 57% 30.03 in 10.0 mi Variable 5.8 mph - N/A   Clear
4:53 PM 88.0 °F 93.8 °F 71.1 °F 57% 30.02 in 10.0 mi Variable 5.8 mph - N/A   Clear
5:53 PM 89.1 °F 96.0 °F 72.0 °F 57% 30.00 in 10.0 mi Calm Calm - N/A   Clear
6:53 PM 87.1 °F 93.6 °F 72.0 °F 61% 30.00 in 10.0 mi Calm Calm - N/A   Clear
7:53 PM 84.0 °F 90.2 °F 73.0 °F 69% 29.99 in 10.0 mi Calm Calm - N/A   Clear
8:53 PM 79.0 °F - 73.9 °F 84% 30.00 in 10.0 mi Calm Calm - N/A   Clear
9:53 PM 78.1 °F - 73.0 °F 84% 30.01 in 10.0 mi Calm Calm - N/A   Clear
10:53 PM 80.1 °F 83.6 °F 71.1 °F 74% 30.01 in 10.0 mi Calm Calm - N/A   Clear
11:53 PM 79.0 °F - 70.0 °F 74% 30.01 in 10.0 mi Calm Calm - N/A   Clear